This is the latest recevied weather packets stored in our database for station/object KD7AWQ. If no packets are shown the sender has not sent any weather packets the latest 10 day(s).
| Time | Temp. | Humidity | Pressure | Rain* | Wind** | Luminosity | Snow |
|---|---|---|---|---|---|---|---|
| 1788022583 | 32.22° C | 26% | 1189.8 hPa | 0 mm | - | 775 W/m² | - |
| 1788022278 | 32.22° C | 26% | 1189.9 hPa | 0 mm | - | 788 W/m² | - |
| 1788021977 | 32.78° C | 25% | 1189.9 hPa | 0 mm | - | 745 W/m² | - |
| 1788021672 | 32.22° C | 26% | 1190 hPa | 0 mm | - | 740 W/m² | - |
| 1788021369 | 32.22° C | 26% | 1189.9 hPa | 0 mm | - | 734 W/m² | - |
| 1788021065 | 32.78° C | 26% | 1189.8 hPa | 0 mm | - | 698 W/m² | - |
| 1788020760 | 32.78° C | 25% | 1189.9 hPa | 0 mm | - | 671 W/m² | - |
| 1788020455 | 32.78° C | 26% | 1189.8 hPa | 0 mm | - | 653 W/m² | - |
| 1788020151 | 33.33° C | 25% | 1189.9 hPa | 0 mm | - | 635 W/m² | - |
| 1788019846 | 32.78° C | 25% | 1189.7 hPa | 0 mm | - | 615 W/m² | - |
| 1788019545 | 32.78° C | 26% | 1189.8 hPa | 0 mm | - | 597 W/m² | - |
| 1788019245 | 32.22° C | 26% | 1189.9 hPa | 0 mm | - | 579 W/m² | - |
| 1788018943 | 31.11° C | 27% | 1189.7 hPa | 0 mm | - | 557 W/m² | - |
| 1788018639 | 31.11° C | 27% | 1189.8 hPa | 0 mm | - | 533 W/m² | - |
| 1788018337 | 30.56° C | 29% | 1189.8 hPa | 0 mm | - | 496 W/m² | - |
| 1788018033 | 31.11° C | 28% | 1189.8 hPa | 0 mm | - | 501 W/m² | - |
| 1788017729 | 30.56° C | 28% | 1190 hPa | 0 mm | - | 478 W/m² | - |
| 1788017426 | 30.56° C | 29% | 1189.9 hPa | 0 mm | - | 454 W/m² | - |
| 1788017122 | 30° C | 29% | 1189.9 hPa | 0 mm | - | 396 W/m² | - |
| 1788016821 | 30° C | 29% | 1189.9 hPa | 0 mm | - | 412 W/m² | - |
| 1788016520 | 30.56° C | 28% | 1189.8 hPa | 0 mm | - | 392 W/m² | - |
| 1788016215 | 30.56° C | 28% | 1189.8 hPa | 0 mm | - | 369 W/m² | - |
| 1788015914 | 30.56° C | 28% | 1190 hPa | 0 mm | - | 353 W/m² | - |
| 1788015609 | 30.56° C | 28% | 1189.9 hPa | 0 mm | - | 330 W/m² | - |
| 1788015303 | 30° C | 29% | 1189.8 hPa | 0 mm | - | 308 W/m² | - |
* Rain latest hour (hover to see other rain measurements)
** Current wind speed in m/s (hover to see current wind gust speed)